When you browse on this site, cookies collect data to enhance your experience and personalize the content and advertising you see.
Visit our Privacy Policy to learn more. By continuing to use the site, you agree to this use of cookies and data.
  • en Suisse
  • Liste des pays
  • À 7 jours
  • Température de l'eau
  • Carte météo
  • Widgets météo
  • user-avatar
    Se connecter

    Météo par heure à Valencia

    Ce jour, 23 Octobre, Mercredi

    Heure Température Précipitation Vent Pression Humidité
    00:00 +23°C° 0 mm 1 m/s 715 mmHg 96%
    01:00 +23°C° 0 mm 1 m/s 715 mmHg 96%
    02:00 +23°C° 0 mm 1 m/s 715 mmHg 96%
    03:00 +21°C° 0 mm 0 m/s 715 mmHg 96%
    04:00 +21°C° 0 mm 0 m/s 715 mmHg 96%
    05:00 +21°C° 0 mm 0 m/s 716 mmHg 93%
    06:00 +22°C° 0 mm 0 m/s 716 mmHg 90%
    07:00 +23°C° 0 mm 0 m/s 717 mmHg 88%
    08:00 +25°C° 0.2 mm 0 m/s 717 mmHg 80%
    09:00 +29°C° 0.2 mm 1 m/s 717 mmHg 71%
    10:00 +31°C° 0.2 mm 1 m/s 718 mmHg 63%
    11:00 +30°C° 1.4 mm 1 m/s 717 mmHg 68%
    12:00 +29°C° 1.4 mm 1 m/s 716 mmHg 74%
    13:00 +29°C° 1.4 mm 1 m/s 715 mmHg 79%
    14:00 +28°C° 1.3 mm 1 m/s 715 mmHg 82%
    15:00 +28°C° 1.3 mm 1 m/s 715 mmHg 85%
    16:00 +25°C° 1.3 mm 0 m/s 715 mmHg 88%
    17:00 +24°C° 0.5 mm 0 m/s 715 mmHg 90%
    18:00 +23°C° 0.5 mm 0 m/s 715 mmHg 92%
    19:00 +22°C° 0.5 mm 0 m/s 716 mmHg 93%
    20:00 +22°C° 0.2 mm 0 m/s 716 mmHg 93%
    21:00 +22°C° 0.2 mm 0 m/s 716 mmHg 93%
    22:00 +21°C° 0.2 mm 0 m/s 716 mmHg 93%
    23:00 +21°C° 0 mm 0 m/s 716 mmHg 93%

    Demain, 24 Octobre, Jeudi

    Heure Température Précipitation Vent Pression Humidité
    00:00 +21°C° 0 mm 0 m/s 715 mmHg 94%
    01:00 +21°C° 0 mm 0 m/s 715 mmHg 94%
    02:00 +21°C° 0 mm 0 m/s 715 mmHg 94%
    03:00 +21°C° 0 mm 0 m/s 715 mmHg 93%
    04:00 +20°C° 0 mm 0 m/s 715 mmHg 93%
    05:00 +21°C° 0 mm 0 m/s 716 mmHg 91%
    06:00 +22°C° 0 mm 0 m/s 716 mmHg 89%
    07:00 +23°C° 0 mm 0 m/s 716 mmHg 87%
    08:00 +27°C° 0 mm 1 m/s 717 mmHg 79%
    09:00 +29°C° 0 mm 1 m/s 717 mmHg 70%
    10:00 +31°C° 0 mm 1 m/s 718 mmHg 61%
    11:00 +31°C° 0.2 mm 1 m/s 717 mmHg 63%
    12:00 +31°C° 0.2 mm 2 m/s 716 mmHg 64%
    13:00 +31°C° 0.2 mm 2 m/s 715 mmHg 66%
    14:00 +30°C° 0.3 mm 1 m/s 715 mmHg 69%
    15:00 +30°C° 0.3 mm 1 m/s 715 mmHg 73%
    16:00 +29°C° 0.3 mm 1 m/s 715 mmHg 76%
    17:00 +28°C° 0 mm 1 m/s 715 mmHg 82%
    18:00 +26°C° 0 mm 1 m/s 715 mmHg 88%
    19:00 +24°C° 0 mm 1 m/s 715 mmHg 94%
    20:00 +24°C° 0.3 mm 1 m/s 715 mmHg 94%
    21:00 +24°C° 0.3 mm 1 m/s 716 mmHg 94%
    22:00 +23°C° 0.3 mm 1 m/s 716 mmHg 95%
    23:00 +21°C° 0.1 mm 0 m/s 716 mmHg 94%

    Après-demain, 25 Octobre, Vendredi

    Heure Température Précipitation Vent Pression Humidité
    00:00 +21°C° 0.1 mm 0 m/s 715 mmHg 93%
    01:00 +21°C° 0.1 mm 0 m/s 715 mmHg 93%
    02:00 +21°C° 0 mm 0 m/s 715 mmHg 92%
    03:00 +21°C° 0 mm 0 m/s 715 mmHg 92%
    04:00 +21°C° 0 mm 0 m/s 715 mmHg 92%
    05:00 +22°C° 0 mm 0 m/s 716 mmHg 90%
    06:00 +23°C° 0 mm 0 m/s 716 mmHg 89%
    07:00 +24°C° 0 mm 0 m/s 717 mmHg 87%
    08:00 +27°C° 0.3 mm 1 m/s 717 mmHg 82%
    09:00 +28°C° 0.3 mm 1 m/s 718 mmHg 78%
    10:00 +29°C° 0.3 mm 1 m/s 718 mmHg 73%
    11:00 +29°C° 0.7 mm 1 m/s 717 mmHg 74%
    12:00 +29°C° 0.7 mm 1 m/s 717 mmHg 75%
    13:00 +30°C° 0.7 mm 2 m/s 716 mmHg 75%
    14:00 +29°C° 0.5 mm 1 m/s 716 mmHg 79%
    15:00 +29°C° 0.5 mm 1 m/s 715 mmHg 83%
    16:00 +28°C° 0.5 mm 1 m/s 715 mmHg 87%
    17:00 +27°C° 0.4 mm 1 m/s 716 mmHg 89%
    18:00 +26°C° 0.4 mm 1 m/s 716 mmHg 91%
    19:00 +23°C° 0.4 mm 0 m/s 716 mmHg 93%
    20:00 +22°C° 0.2 mm 0 m/s 716 mmHg 93%
    21:00 +22°C° 0.2 mm 0 m/s 716 mmHg 93%
    22:00 +22°C° 0.2 mm 0 m/s 717 mmHg 94%
    23:00 +22°C° 0 mm 0 m/s 716 mmHg 94%

    26 Octobre, Samedi

    Heure Température Précipitation Vent Pression Humidité
    00:00 +21°C° 0 mm 0 m/s 716 mmHg 94%
    01:00 +21°C° 0 mm 0 m/s 716 mmHg 94%
    02:00 +21°C° 0 mm 0 m/s 716 mmHg 94%
    03:00 +21°C° 0 mm 0 m/s 716 mmHg 94%
    04:00 +21°C° 0 mm 0 m/s 716 mmHg 94%
    05:00 +22°C° 0 mm 0 m/s 716 mmHg 93%
    06:00 +23°C° 0 mm 0 m/s 717 mmHg 91%
    07:00 +24°C° 0 mm 0 m/s 718 mmHg 90%
    08:00 +25°C° 0 mm 0 m/s 718 mmHg 81%
    09:00 +29°C° 0 mm 1 m/s 718 mmHg 71%
    10:00 +31°C° 0 mm 1 m/s 718 mmHg 62%
    11:00 +31°C° 0.4 mm 1 m/s 718 mmHg 66%
    12:00 +30°C° 0.4 mm 1 m/s 717 mmHg 70%
    13:00 +30°C° 0.4 mm 1 m/s 716 mmHg 74%
    14:00 +29°C° 0.6 mm 1 m/s 716 mmHg 78%
    15:00 +29°C° 0.6 mm 1 m/s 716 mmHg 83%
    16:00 +28°C° 0.6 mm 1 m/s 715 mmHg 87%
    17:00 +27°C° 0.3 mm 1 m/s 716 mmHg 90%
    18:00 +26°C° 0.3 mm 1 m/s 716 mmHg 92%
    19:00 +24°C° 0.3 mm 1 m/s 716 mmHg 95%
    20:00 +24°C° 0.1 mm 1 m/s 716 mmHg 95%
    21:00 +24°C° 0.1 mm 1 m/s 716 mmHg 95%
    22:00 +24°C° 0.1 mm 1 m/s 716 mmHg 95%
    23:00 +22°C° 0.1 mm 0 m/s 716 mmHg 95%

    27 Octobre, Dimanche

    Heure Température Précipitation Vent Pression Humidité
    00:00 +21°C° 0.1 mm 0 m/s 716 mmHg 96%
    01:00 +21°C° 0.1 mm 0 m/s 716 mmHg 96%
    02:00 +21°C° 0 mm 0 m/s 716 mmHg 95%
    03:00 +21°C° 0 mm 0 m/s 715 mmHg 95%
    04:00 +21°C° 0 mm 0 m/s 715 mmHg 94%
    05:00 +22°C° 0 mm 0 m/s 716 mmHg 93%
    06:00 +23°C° 0 mm 0 m/s 717 mmHg 91%
    07:00 +24°C° 0 mm 0 m/s 717 mmHg 89%
    08:00 +27°C° 0 mm 1 m/s 717 mmHg 81%
    09:00 +29°C° 0 mm 1 m/s 718 mmHg 72%
    10:00 +30°C° 0 mm 2 m/s 718 mmHg 64%
    11:00 +31°C° 0.1 mm 2 m/s 717 mmHg 63%
    12:00 +31°C° 0.1 mm 2 m/s 716 mmHg 62%
    13:00 +32°C° 0.1 mm 2 m/s 716 mmHg 60%
    14:00 +31°C° 0.3 mm 1 m/s 715 mmHg 68%
    15:00 +30°C° 0.3 mm 1 m/s 715 mmHg 76%
    16:00 +29°C° 0.3 mm 1 m/s 715 mmHg 84%
    17:00 +27°C° 0.2 mm 1 m/s 715 mmHg 87%
    18:00 +26°C° 0.2 mm 1 m/s 716 mmHg 91%
    19:00 +23°C° 0.2 mm 0 m/s 716 mmHg 95%
    20:00 +22°C° 0 mm 0 m/s 716 mmHg 95%
    21:00 +22°C° 0 mm 0 m/s 716 mmHg 95%
    22:00 +22°C° 0 mm 0 m/s 716 mmHg 95%
    23:00 +22°C° 0.1 mm 0 m/s 716 mmHg 95%

    28 Octobre, Lundi

    Heure Température Précipitation Vent Pression Humidité
    00:00 +21°C° 0.1 mm 0 m/s 716 mmHg 95%
    01:00 +21°C° 0.1 mm 0 m/s 716 mmHg 95%
    02:00 +21°C° 0.1 mm 0 m/s 716 mmHg 95%
    03:00 +21°C° 0.1 mm 0 m/s 715 mmHg 95%
    04:00 +21°C° 0.1 mm 0 m/s 715 mmHg 95%
    05:00 +22°C° 0 mm 0 m/s 716 mmHg 93%
    06:00 +23°C° 0 mm 0 m/s 717 mmHg 91%
    07:00 +24°C° 0 mm 0 m/s 717 mmHg 89%
    08:00 +27°C° 0 mm 1 m/s 717 mmHg 80%
    09:00 +29°C° 0 mm 1 m/s 718 mmHg 71%
    10:00 +31°C° 0 mm 1 m/s 718 mmHg 62%
    11:00 +31°C° 0.5 mm 1 m/s 717 mmHg 63%
    12:00 +31°C° 0.5 mm 1 m/s 716 mmHg 64%
    13:00 +31°C° 0.5 mm 1 m/s 716 mmHg 65%
    14:00 +30°C° 0.3 mm 1 m/s 715 mmHg 70%
    15:00 +30°C° 0.3 mm 1 m/s 715 mmHg 74%
    16:00 +29°C° 0.3 mm 1 m/s 714 mmHg 79%
    17:00 +27°C° 0.3 mm 1 m/s 715 mmHg 84%
    18:00 +26°C° 0.3 mm 1 m/s 715 mmHg 89%
    19:00 +24°C° 0.3 mm 1 m/s 716 mmHg 94%
    20:00 +24°C° 0.2 mm 1 m/s 716 mmHg 94%
    21:00 +24°C° 0.2 mm 1 m/s 716 mmHg 94%
    22:00 +24°C° 0.2 mm 1 m/s 716 mmHg 95%
    23:00 +22°C° 0.2 mm 0 m/s 716 mmHg 94%

    29 Octobre, Mardi

    Heure Température Précipitation Vent Pression Humidité
    00:00 +21°C° 0.2 mm 0 m/s 715 mmHg 94%
    01:00 +21°C° 0.2 mm 0 m/s 715 mmHg 94%
    02:00 +21°C° 0 mm 0 m/s 715 mmHg 94%
    03:00 +21°C° 0 mm 0 m/s 715 mmHg 94%
    04:00 +21°C° 0 mm 0 m/s 715 mmHg 93%
    05:00 +22°C° 0 mm 0 m/s 716 mmHg 91%
    06:00 +23°C° 0 mm 0 m/s 716 mmHg 89%
    07:00 +24°C° 0 mm 0 m/s 717 mmHg 87%
    08:00 +27°C° 0 mm 1 m/s 717 mmHg 80%
    09:00 +29°C° 0 mm 1 m/s 718 mmHg 73%
    10:00 +30°C° 0 mm 1 m/s 718 mmHg 66%
    11:00 +30°C° 0.3 mm 1 m/s 717 mmHg 67%
    12:00 +30°C° 0.3 mm 2 m/s 716 mmHg 68%
    13:00 +30°C° 0.3 mm 2 m/s 715 mmHg 68%
    14:00 +30°C° 0.4 mm 1 m/s 715 mmHg 73%
    15:00 +29°C° 0.4 mm 1 m/s 715 mmHg 77%
    16:00 +29°C° 0.4 mm 1 m/s 714 mmHg 81%
    17:00 +27°C° 0.2 mm 1 m/s 715 mmHg 86%
    18:00 +26°C° 0.2 mm 1 m/s 715 mmHg 90%
    19:00 +24°C° 0.2 mm 1 m/s 715 mmHg 95%
    Voir plus